Tracking 23764 objects as of 18-Oct-2021
HD Live streaming from Space Station
objects crossing your sky now

COSMOS 1974

Track COSMOS 1974 now!
COSMOS 1974 is classified as:


NORAD ID: 19554
Int'l Code: 1988-092A
Perigee: 7,554.6 km
Apogee: 32,795.3 km
Inclination: 70.0 °
Period: 717.4 minutes
Semi major axis: 26545 km
RCS: 16.1296 m2 (large)
Launch date: October 3, 1988
Source: Commonwealth of Independent States (former USSR) (CIS)
Launch site: PLESETSK MISSILE AND SPACE COMPLEX (PKMTR)
aabbcc
Your satellite tracking list
Your tracking list is empty




NASA's NSSDC Master Catalog

Two Line Element Set (TLE):
1 19554U 88092A   21289.35852777 -.00000037  00000-0  00000-0 0  9998
2 19554  69.9776 246.3016 4754159 112.0348  15.0202  2.00726785241943
Source of the keplerian elements: AFSPC